• In Hungary
  • List of Countries
  • For 7 days
  • Water Temperature
  • Satellite Maps
  • Weather Map
  • News
  • Weather Widgets
  • user-avatar
    Login

    Hourly Weather Kaprun

    Today, 19 September, Wednesday

    Time Temperature Precipitation Wind Pressure Humidity
    00:00 +8°C° 0.5 mm 1 mps 601 mmHg 93%
    01:00 +7°C° 0 mm 1 mps 601 mmHg 93%
    02:00 +7°C° 0.1 mm 1 mps 601 mmHg 92%
    03:00 +7°C° 0.1 mm 1 mps 601 mmHg 92%
    04:00 +6°C° 0.1 mm 1 mps 600 mmHg 91%
    05:00 +7°C° 0 mm 1 mps 601 mmHg 91%
    06:00 +7°C° 0 mm 1 mps 601 mmHg 90%
    07:00 +8°C° 0 mm 1 mps 601 mmHg 89%
    08:00 +10°C° 0 mm 1 mps 603 mmHg 78%
    09:00 +13°C° 0 mm 1 mps 604 mmHg 68%
    10:00 +15°C° 0 mm 1 mps 605 mmHg 58%
    11:00 +16°C° 0.1 mm 1 mps 605 mmHg 55%
    12:00 +18°C° 0.1 mm 1 mps 605 mmHg 52%
    13:00 +18°C° 0.1 mm 1 mps 605 mmHg 50%
    14:00 +18°C° 0.2 mm 1 mps 605 mmHg 54%
    15:00 +16°C° 0.2 mm 1 mps 605 mmHg 58%
    16:00 +15°C° 0.2 mm 1 mps 604 mmHg 62%
    17:00 +13°C° 0.2 mm 1 mps 603 mmHg 71%
    18:00 +11°C° 0.2 mm 1 mps 603 mmHg 80%
    19:00 +9°C° 0.2 mm 1 mps 602 mmHg 89%
    20:00 +8°C° 0 mm 1 mps 602 mmHg 90%
    21:00 +8°C° 0 mm 1 mps 602 mmHg 90%
    22:00 +7°C° 0 mm 1 mps 602 mmHg 91%
    23:00 +7°C° 0 mm 1 mps 602 mmHg 90%

    Tomorrow, 20 September, Thursday

    Time Temperature Precipitation Wind Pressure Humidity
    00:00 +7°C° 0 mm 1 mps 602 mmHg 90%
    01:00 +6°C° 0 mm 1 mps 602 mmHg 89%
    02:00 +6°C° 0 mm 1 mps 601 mmHg 87%
    03:00 +6°C° 0 mm 1 mps 601 mmHg 85%
    04:00 +6°C° 0 mm 1 mps 601 mmHg 84%
    05:00 +6°C° 0 mm 1 mps 601 mmHg 82%
    06:00 +7°C° 0 mm 1 mps 602 mmHg 80%
    07:00 +7°C° 0 mm 1 mps 602 mmHg 78%
    08:00 +10°C° 0 mm 1 mps 603 mmHg 68%
    09:00 +13°C° 0 mm 1 mps 604 mmHg 58%
    10:00 +15°C° 0 mm 0 mps 606 mmHg 47%
    11:00 +16°C° 0 mm 0 mps 606 mmHg 45%
    12:00 +18°C° 0 mm 1 mps 606 mmHg 43%
    13:00 +19°C° 0 mm 1 mps 606 mmHg 40%
    14:00 +19°C° 0 mm 1 mps 605 mmHg 43%
    15:00 +18°C° 0 mm 1 mps 605 mmHg 46%
    16:00 +18°C° 0 mm 1 mps 604 mmHg 50%
    17:00 +14°C° 0 mm 1 mps 603 mmHg 61%
    18:00 +12°C° 0 mm 1 mps 602 mmHg 73%
    19:00 +9°C° 0 mm 1 mps 601 mmHg 85%
    20:00 +9°C° 0 mm 1 mps 601 mmHg 85%
    21:00 +8°C° 0 mm 1 mps 601 mmHg 85%
    22:00 +7°C° 0 mm 2 mps 601 mmHg 86%
    23:00 +7°C° 0 mm 2 mps 600 mmHg 86%

    Day after tomorrow, 21 September, Friday

    Time Temperature Precipitation Wind Pressure Humidity
    00:00 +7°C° 0 mm 2 mps 600 mmHg 87%
    01:00 +6°C° 0 mm 2 mps 600 mmHg 88%
    02:00 +6°C° 0 mm 2 mps 600 mmHg 89%
    03:00 +6°C° 0 mm 2 mps 599 mmHg 90%
    04:00 +6°C° 0 mm 2 mps 599 mmHg 90%
    05:00 +6°C° 0 mm 2 mps 599 mmHg 89%
    06:00 +7°C° 0 mm 2 mps 600 mmHg 88%
    07:00 +7°C° 0 mm 2 mps 600 mmHg 86%
    08:00 +11°C° 0 mm 1 mps 601 mmHg 76%
    09:00 +14°C° 0 mm 1 mps 602 mmHg 65%
    10:00 +18°C° 0 mm 1 mps 603 mmHg 54%
    11:00 +18°C° 0 mm 1 mps 603 mmHg 50%
    12:00 +18°C° 0 mm 2 mps 603 mmHg 47%
    13:00 +19°C° 0 mm 2 mps 603 mmHg 44%
    14:00 +18°C° 0 mm 2 mps 603 mmHg 48%
    15:00 +18°C° 0 mm 2 mps 602 mmHg 51%
    16:00 +17°C° 0 mm 2 mps 602 mmHg 55%
    17:00 +15°C° 0 mm 1 mps 601 mmHg 67%
    18:00 +12°C° 0 mm 1 mps 600 mmHg 78%
    19:00 +9°C° 0 mm 0 mps 599 mmHg 89%
    20:00 +10°C° 0.1 mm 1 mps 600 mmHg 90%
    21:00 +9°C° 0.1 mm 1 mps 600 mmHg 91%
    22:00 +9°C° 0.1 mm 1 mps 600 mmHg 92%
    23:00 +9°C° 0.1 mm 1 mps 600 mmHg 94%

    22 September, Saturday

    Time Temperature Precipitation Wind Pressure Humidity
    00:00 +9°C° 0.1 mm 1 mps 601 mmHg 95%
    01:00 +8°C° 0.1 mm 1 mps 601 mmHg 97%
    02:00 +8°C° 0.4 mm 1 mps 601 mmHg 97%
    03:00 +7°C° 0.4 mm 1 mps 600 mmHg 98%
    04:00 +7°C° 0.4 mm 1 mps 600 mmHg 98%
    05:00 +5°C° 0.3 mm 2 mps 600 mmHg 98%
    06:00 +5°C° 0.3 mm 2 mps 600 mmHg 97%
    07:00 +4°C° 0.3 mm 2 mps 601 mmHg 97%
    08:00 +4°C° 0.5 mm 2 mps 601 mmHg 96%
    09:00 +5°C° 0.5 mm 1 mps 601 mmHg 96%
    10:00 +5°C° 0.5 mm 1 mps 601 mmHg 95%
    11:00 +5°C° 0.4 mm 1 mps 601 mmHg 93%
    12:00 +6°C° 0.4 mm 1 mps 601 mmHg 91%
    13:00 +7°C° 0.4 mm 1 mps 601 mmHg 88%
    14:00 +7°C° 0.3 mm 1 mps 601 mmHg 87%
    15:00 +6°C° 0.3 mm 2 mps 601 mmHg 86%
    16:00 +6°C° 0.3 mm 2 mps 601 mmHg 84%
    17:00 +5°C° 0.1 mm 2 mps 601 mmHg 88%
    18:00 +4°C° 0.1 mm 2 mps 601 mmHg 91%
    19:00 +4°C° 0.1 mm 1 mps 601 mmHg 94%
    20:00 +4°C° 0 mm 1 mps 601 mmHg 95%
    21:00 +4°C° 0 mm 1 mps 601 mmHg 95%
    22:00 +3°C° 0 mm 1 mps 602 mmHg 95%
    23:00 +3°C° 0 mm 1 mps 601 mmHg 95%

    23 September, Sunday

    Time Temperature Precipitation Wind Pressure Humidity
    00:00 +3°C° 0 mm 1 mps 601 mmHg 95%
    01:00 +3°C° 0 mm 1 mps 601 mmHg 95%
    02:00 +3°C° 0 mm 1 mps 601 mmHg 95%
    03:00 +2°C° 0 mm 1 mps 601 mmHg 95%
    04:00 +1°C° 0 mm 0 mps 600 mmHg 95%
    05:00 +3°C° 0 mm 1 mps 601 mmHg 93%
    06:00 +4°C° 0 mm 1 mps 601 mmHg 91%
    07:00 +4°C° 0 mm 1 mps 601 mmHg 89%
    08:00 +6°C° 0 mm 1 mps 602 mmHg 82%
    09:00 +9°C° 0 mm 1 mps 602 mmHg 76%
    10:00 +11°C° 0 mm 1 mps 603 mmHg 70%
    11:00 +12°C° 0 mm 2 mps 603 mmHg 65%
    12:00 +14°C° 0 mm 2 mps 603 mmHg 61%
    13:00 +16°C° 0 mm 2 mps 603 mmHg 56%
    14:00 +16°C° 0 mm 2 mps 603 mmHg 59%
    15:00 +16°C° 0 mm 2 mps 602 mmHg 62%
    16:00 +14°C° 0 mm 3 mps 601 mmHg 65%
    17:00 +12°C° 0 mm 3 mps 600 mmHg 74%
    18:00 +10°C° 0 mm 3 mps 599 mmHg 82%
    19:00 +8°C° 0 mm 3 mps 598 mmHg 90%
    20:00 +8°C° 0 mm 3 mps 597 mmHg 90%
    21:00 +8°C° 0 mm 3 mps 597 mmHg 90%
    22:00 +8°C° 0 mm 3 mps 596 mmHg 90%
    23:00 +8°C° 0 mm 3 mps 595 mmHg 89%

    24 September, Monday

    Time Temperature Precipitation Wind Pressure Humidity
    00:00 +8°C° 0 mm 3 mps 594 mmHg 88%
    01:00 +8°C° 0 mm 3 mps 594 mmHg 88%
    02:00 +7°C° 0.9 mm 3 mps 594 mmHg 90%
    03:00 +7°C° 0.9 mm 3 mps 594 mmHg 93%
    04:00 +6°C° 0.9 mm 2 mps 594 mmHg 96%
    05:00 +4°C° 0.9 mm 3 mps 594 mmHg 95%
    06:00 +3°C° 0.9 mm 3 mps 594 mmHg 93%
    07:00 +1°C° 0.9 mm 4 mps 595 mmHg 92%
    08:00 +2°C° 0.1 mm 5 mps 596 mmHg 83%
    09:00 +2°C° 0.1 mm 5 mps 597 mmHg 73%
    10:00 +3°C° 0.1 mm 6 mps 598 mmHg 64%
    11:00 +3°C° 0.1 mm 6 mps 598 mmHg 62%
    12:00 +3°C° 0.1 mm 6 mps 599 mmHg 60%
    13:00 +5°C° 0.1 mm 5 mps 600 mmHg 58%
    14:00 +3°C° 0.1 mm 5 mps 600 mmHg 60%
    15:00 +3°C° 0.1 mm 4 mps 600 mmHg 63%
    16:00 +3°C° 0.1 mm 4 mps 600 mmHg 66%
    17:00 +1°C° 0.2 mm 4 mps 600 mmHg 73%
    18:00 0°C° 0.2 mm 3 mps 601 mmHg 79%
    19:00 -1°C° 0.2 mm 3 mps 601 mmHg 86%
    20:00 -1°C° 0.2 mm 3 mps 601 mmHg 86%
    21:00 -1°C° 0.2 mm 3 mps 602 mmHg 87%
    22:00 -1°C° 0.2 mm 3 mps 603 mmHg 87%
    23:00 -2°C° 0.1 mm 3 mps 603 mmHg 88%
    Show more